リニア彗星

402P/LINEAR (2021)

English version
Home page
Updated on February 20, 2021

---------------------------------------------------------------------

・ プロフィール

符号 402P/2020 Q3
検出日 2020年8月18日
検出光度 19.5等
検出者 E. Schwab (Egelsbach, Germany)

・ 写真集

・ 軌道要素

Epoch 2021 Dec. 12.0 TT = JDT 2459560.5
T 2021 Dec. 14.54722 TT                                 Rudenko
q   3.9378774            (2000.0)            P               Q
n   0.05304382     Peri.  326.73176     -0.06194508     -0.90087468
a   7.0152990      Node   123.09140     +0.99049368     -0.10845897
e   0.4386729      Incl.   30.85151     +0.12282133     +0.42031115
P  18.6
From 1278 observations 2001 Nov. 22-2021 Jan. 29, mean residual 0".9.

・ 星図

・ 光度変化

        m1 = -5   + 5 logΔ + 30   log r  [    ,-280]  (              〜2021年 3月 9日)
        m1 =  6.0 + 5 logΔ + 12.5 log r  [-280,    ]  (2021年 3月 9日〜              )

---------------------------------------------------------------------

軌道要素はM.P.E.C. 2021-B143に掲載されたものです。
星図はステラナビゲータ Ver.10 (アストロアーツ) で作成したものです。
光度グラフはComet for Windowsで作成したものです。

---------------------------------------------------------------------

Copyright(C) Seiichi Yoshida (comet@aerith.net). All rights reserved.